www.pogodaiklimat.ru

Погода и климат >> Архив погоды >> Финляндия >> Лаппеенранта Коннунсуо


ПОГОДА в Лаппеенранта Коннунсуо

  • Прогноз погоды в Лаппеенранта Коннунсуо
  • Монитор погоды в Лаппеенранта Коннунсуо

АРХИВ ПОГОДЫ в Лаппеенранта Коннунсуо

Время (UTC), дата Ветер
(напр.,м/с)
 
Видим.   Явления Облачность Т
(С)
Тd
(С)
f
(%)
Тe
(С)
Тes
(С)
Комфортность P
(гПа)
Po
(гПа)
Тmin
(С)
Tmax
(С)
R
(мм)
R24
(мм)
S
(см)
07 15.08 ЮЗ 4 н/о н/о +15.9 +11.9 77 +15 +15 1006.0 1000.4
08 15.08 ЮЗ 4-7
{7}
н/о н/о +17.6 +10.9 65 +17 +17 1005.5 1000.0
09 15.08 Ю 3-4
{11}
н/о н/о +12.7 +10.8 88 +11 +11 1005.9 1000.3
10 15.08 ЮЗ 4 н/о н/о +15.2 +11.9 81 +14 +14 1006.2 1000.6
11 15.08 ЮЗ 3-4
{14}
н/о н/о +13.4 +11.3 87 +12 +12 1006.4 1000.7
12 15.08 З 4-7
{7}
н/о н/о +17.3 +11.6 69 +17 +17 1006.5 1000.9
13 15.08 СЗ 2 н/о н/о +15.3 +12.2 82 +15 +15 1006.9 1001.3
14 15.08 З 2-4
{4}
н/о н/о +15.9 +11.8 77 +16 +16 1007.0 1001.4
15 15.08 ЮЗ 2-3
{12}
н/о н/о +14.5 +12.0 85 +14 +14 1007.6 1002.0
16 15.08 ЮЗ 2 н/о н/о +15.7 +11.9 78 +16 +16 1007.7 1002.1
17 15.08 Ю 3-4
{4}
н/о н/о +14.5 +11.9 84 +14 +14 1008.3 1002.7
18 15.08 ЮЗ 1-2
{3}
н/о н/о +13.5 +11.5 88 +14 +14 1009.1 1003.4 +12.2 +18.1
19 15.08 штиль 0
{2}
н/о н/о +11.1 +9.9 92 +10 +10 1009.4 1003.7
20 15.08 штиль 0
{2}
н/о н/о +9.0 +8.0 93 +8 +8 1010.0 1004.2
21 15.08 З 1-1
{1}
н/о н/о +8.6 +7.7 94 +8 +8 1010.7 1004.9
22 15.08 ЮЗ 1 н/о н/о +7.8 +6.9 94 +7 +7 1011.1 1005.3
23 15.08 З 2 н/о н/о +6.7 +5.8 94 +4 +4 1011.6 1005.8
00 16.08 ЮЗ 3-4
{4}
н/о н/о +7.3 +6.5 95 +4 +4 1012.3 1006.4
01 16.08 З 2 н/о н/о +8.4 +6.8 90 +6 +6 1012.4 1006.6
02 16.08 ЮЗ 1-2
{2}
н/о н/о +5.1 +4.3 95 +4 +4 1012.8 1006.9
03 16.08 ЮЗ 1-2
{2}
н/о н/о +3.8 +2.9 94 +2 +2 1013.4 1007.5
04 16.08 штиль 0 н/о н/о +6.2 +5.3 94 +5 +5 1013.7 1007.8
05 16.08 ЮЗ 1-1
{1}
н/о н/о +10.6 +8.1 85 +10 +10 1013.9 1008.2
06 16.08 ЮЗ 3-4
{4}
н/о н/о +14.2 +9.8 75 +13 +13 1014.2 1008.5 +3.2 +14.2
07 16.08 ЮЗ 4-7
{7}
н/о н/о +15.9 +10.4 70 +15 +15 1014.2 1008.5
08 16.08 ЮЗ 5 н/о н/о +17.2 +10.4 64 +17 +17 1014.3 1008.6
09 16.08 ЮЗ 5-7
{8}
н/о н/о +18.7 +10.8 60 +19 +19 1014.4 1008.8
10 16.08 З 5-7
{8}
н/о н/о +19.1 +9.3 53 +20 +20 1014.4 1008.8
11 16.08 ЮЗ 5 н/о н/о +20.2 +8.4 47 +21 +21 комфорт 1014.3 1008.7
12 16.08 ЮЗ 4-7
{7}
н/о н/о +19.3 +8.1 48 +20 +20 1014.3 1008.8
13 16.08 ЮЗ 5 н/о н/о +19.8 +8.3 47 +21 +21 комфорт 1014.3 1008.7
14 16.08 ЮЗ 4 н/о н/о +20.0 +10.5 54 +21 +21 комфорт 1014.4 1008.8
15 16.08 Ю 4-7
{10}
н/о н/о +19.1 +11.4 61 +20 +20 1014.7 1009.1
16 16.08 ЮЗ 4 н/о н/о +18.8 +9.7 55 +19 +19 1014.8 1009.2
17 16.08 ЮЗ 3-3
{6}
н/о н/о +17.3 +9.1 59 +17 +17 1015.1 1009.5
18 16.08 Ю 3-4
{4}
н/о н/о +12.7 +9.2 79 +11 +11 1015.6 1009.9 +12.7 +21.5
19 16.08 ЮВ 1 н/о н/о +11.4 +9.6 89 +11 +11 1016.0 1010.2
20 16.08 ЮВ 1-1
{2}
н/о н/о +11.1 +9.1 87 +11 +11 1016.2 1010.4
21 16.08 ЮЗ 1-2
{2}
н/о н/о +12.2 +10.3 88 +12 +12 1016.4 1010.6
22 16.08 Ю 1 н/о н/о +12.5 +10.9 90 +12 +12 1016.6 1010.9
23 16.08 В 1 н/о н/о +11.0 +10.0 94 +11 +11 1016.9 1011.1
00 17.08 В 1-1
{1}
н/о н/о +8.8 +7.9 94 +8 +8 1017.3 1011.4
01 17.08 В 2 н/о н/о +9.7 +9.0 95 +8 +8 1017.2 1011.4
02 17.08 В 2-2
{2}
н/о н/о +11.2 +10.5 95 +10 +10 1017.1 1011.3
03 17.08 В 3-3
{3}
н/о н/о +11.8 +11.0 95 +10 +10 1017.2 1011.4
04 17.08 В 2 н/о н/о +12.2 +11.1 93 +11 +11 1017.2 1011.5
05 17.08 ЮВ 2 н/о н/о +14.2 +12.7 91 +14 +14 1017.4 1011.7
06 17.08 Ю 4-6
{6}
н/о н/о +17.0 +11.8 71 +17 +17 1017.3 1011.6 +8.8 +17.0
07 17.08 Ю 4-6
{6}
н/о н/о +18.4 +12.2 67 +19 +19 1017.4 1011.8
08 17.08 Ю 5 н/о н/о +18.9 +11.5 62 +19 +19 1017.4 1011.8
09 17.08 Ю 3-5
{9}
н/о н/о +19.4 +10.5 56 +21 +21 комфорт 1017.3 1011.7
10 17.08 ЮВ 6 н/о н/о +21.4 +9.9 48 +23 +23 комфорт 1017.0 1011.5
11 17.08 Ю 6 н/о н/о +22.2 +10.6 48 +24 +24 комфорт 1016.9 1011.4
12 17.08 Ю 7-10
{10}
н/о н/о +22.2 +9.9 46 +24 +24 комфорт 1016.8 1011.2
13 17.08 Ю 6-8
{9}
н/о н/о +22.2 +9.7 45 +24 +24 комфорт 1016.6 1011.0
14 17.08 Ю 5 н/о н/о +22.1 +10.0 46 +24 +24 комфорт 1016.3 1010.7
15 17.08 Ю 5-7
{8}
н/о н/о +21.4 +9.7 47 +23 +23 комфорт 1016.0 1010.4
16 17.08 Ю 4 н/о н/о +21.0 +9.8 49 +23 +23 комфорт 1015.9 1010.3
17 17.08 Ю 3-3
{5}
н/о н/о +18.9 +10.9 60 +20 +20 1015.9 1010.3
18 17.08 ЮВ 3-3
{3}
н/о н/о +13.5 +10.7 83 +12 +12 1016.2 1010.5 +13.5 +22.6
19 17.08 В 1 н/о н/о +13.6 +10.2 80 +14 +14 1016.2 1010.5
20 17.08 В 2 н/о н/о +12.1 +9.4 84 +11 +11 1016.3 1010.6
21 17.08 ЮВ 1-2
{4}
н/о н/о +12.9 +8.9 77 +13 +13 1016.3 1010.5
22 17.08 В 3 н/о н/о +12.2 +8.5 78 +11 +11 1016.4 1010.7
23 17.08 В 3-4
{4}
н/о н/о +10.7 +8.1 84 +9 +9 1016.6 1010.8
00 18.08 В 2-3
{4}
н/о н/о +10.1 +8.3 89 +9 +9 1016.5 1010.7
01 18.08 В 2 н/о н/о +10.5 +8.4 87 +9 +9 1016.5 1010.7
02 18.08 В 3-3
{3}
н/о н/о +9.9 +8.0 88 +8 +8 1016.2 1010.4
03 18.08 В 2-2
{2}
н/о н/о +7.2 +6.3 94 +5 +5 1016.2 1010.3
04 18.08 В 2-3
{3}
н/о н/о +8.7 +6.6 87 +7 +7 1016.2 1010.4
05 18.08 В 2 н/о н/о +13.6 +10.6 82 +13 +13 1016.1 1010.4
06 18.08 ЮВ 3-4
{4}
н/о н/о +17.3 +10.7 65 +17 +17 1015.8 1010.1 +6.6 +17.3
07 18.08 В 3 н/о н/о +19.2 +10.0 55 +20 +20 1015.6 1010.0
08 18.08 ЮВ 5-9
{9}
н/о н/о +20.4 +8.3 46 +22 +22 комфорт 1015.2 1009.6
09 18.08 ЮВ 7-9
{10}
н/о н/о +21.3 +7.4 41 +22 +22 комфорт 1014.8 1009.3
10 18.08 ЮВ 5-6
{9}
н/о н/о +21.9 +8.1 41 +23 +23 комфорт 1014.4 1008.8
11 18.08 В 4 н/о н/о +22.0 +8.6 42 +23 +23 комфорт 1014.0 1008.4
12 18.08 ЮВ 4-6
{8}
н/о н/о +22.5 +8.2 40 +24 +24 комфорт 1013.7 1008.1
13 18.08 В 3-7
{8}
н/о н/о +22.3 +8.6 41 +24 +24 комфорт 1013.3 1007.8
14 18.08 В 4-8
{8}
н/о н/о +22.0 +8.7 43 +23 +23 комфорт 1013.1 1007.5
15 18.08 ЮВ 3-5
{7}
н/о н/о +21.3 +9.0 45 +23 +23 комфорт 1013.1 1007.5
16 18.08 В 4 н/о н/о +20.0 +9.4 50 +21 +21 комфорт 1012.8 1007.3
17 18.08 ЮВ 3 н/о н/о +17.8 +10.2 61 +18 +18 1012.8 1007.2
18 18.08 В 3-4
{5}
н/о н/о +14.2 +9.4 73 +13 +13 1013.2 1007.5 +14.2 +22.7
19 18.08 В 2-3
{3}
н/о н/о +12.0 +8.7 80 +11 +11 1013.1 1007.3
20 18.08 В 3 н/о н/о +11.2 +7.9 80 +9 +9 1012.7 1006.9
21 18.08 В 2-2
{4}
н/о н/о +11.1 +8.1 82 +10 +10 1012.6 1006.8
22 18.08 В 1 н/о н/о +8.2 +6.5 89 +7 +7 1012.7 1006.9
23 18.08 В 4-5
{5}
н/о н/о +10.7 +8.5 86 +8 +8 1011.8 1006.0
00 19.08 В 2-2
{5}
н/о н/о +10.7 +8.7 87 +9 +9 1012.1 1006.3
01 19.08 В 3-3
{4}
н/о н/о +10.7 +9.1 90 +9 +9 1011.8 1006.0
02 19.08 ЮВ 3 н/о н/о +11.2 +9.9 92 +9 +9 1011.3 1005.6
03 19.08 ЮВ 3-3
{4}
н/о н/о +11.7 +10.4 92 +10 +10 1011.1 1005.4
04 19.08 ЮВ 3 н/о н/о +13.6 +11.7 88 +12 +12 1010.9 1005.2
05 19.08 ЮВ 3 н/о н/о +14.6 +12.3 86 +14 +14 1010.7 1005.1
06 19.08 ЮВ 5-7
{7}
н/о н/о +16.5 +12.7 78 +16 +16 1009.9 1004.3 +7.0 +16.5
07 19.08 ЮВ 5 н/о н/о +18.5 +13.4 72 +19 +19 1009.4 1003.8
08 19.08 ЮВ 4-8
{9}
н/о н/о +19.5 +12.8 65 +21 +21 комфорт 1009.1 1003.6
09 19.08 ЮВ 6-9
{11}
н/о н/о +19.8 +12.8 64 +21 +21 комфорт 1009.0 1003.4
10 19.08 ЮВ 4-8
{8}
н/о н/о +20.8 +13.9 65 +24 +24 комфорт 1008.4 1002.9
11 19.08 ЮВ 7 н/о н/о +21.1 +13.1 60 +23 +23 комфорт 1008.5 1003.0
12 19.08 Ю 6-8
{10}
н/о н/о +20.4 +13.4 64 +22 +22 комфорт 1008.7 1003.1
13 19.08 Ю 4 н/о н/о +20.0 +13.3 65 +22 +22 комфорт 1009.0 1003.4
14 19.08 Ю 5 н/о н/о +19.3 +14.1 72 +21 +21 комфорт 1009.5 1003.9
15 19.08 Ю 4-6
{9}
н/о н/о +17.8 +16.0 89 +18 +18 1010.0 1004.4
16 19.08 Ю 4-5
{8}
н/о н/о +18.1 +15.9 87 +18 +18 1010.3 1004.7
17 19.08 Ю 4 н/о н/о +18.1 +15.7 86 +18 +18 1010.3 1004.7
18 19.08 Ю 4-7
{7}
н/о н/о +17.2 +14.8 86 +17 +17 1010.8 1005.2 +16.5 +22.1
19 19.08 ЮЗ 4 н/о н/о +16.1 +13.6 85 +15 +15 1011.4 1005.7
20 19.08 Ю 2-3
{4}
н/о н/о +15.3 +13.6 90 +15 +15 1011.7 1006.1
21 19.08 ЮЗ 2-3
{3}
н/о н/о +14.2 +12.8 91 +14 +14 1012.5 1006.9
22 19.08 ЮЗ 2 н/о н/о +13.3 +12.0 92 +13 +13 1012.9 1007.2
23 19.08 ЮЗ 2 н/о н/о +12.3 +11.3 94 +11 +11 1013.5 1007.8
00 20.08 ЮЗ 2-3
{5}
н/о н/о +12.3 +11.3 94 +11 +11 1013.9 1008.2
01 20.08 ЮЗ 2-3
{3}
н/о н/о +11.5 +10.6 94 +10 +10 1014.5 1008.8
02 20.08 ЮЗ 2 н/о н/о +11.6 +10.6 94 +10 +10 1014.9 1009.2
03 20.08 Ю 1-2
{3}
н/о н/о +8.3 +7.5 95 +7 +7 1015.5 1009.7
04 20.08 ЮЗ 3 н/о н/о +11.5 +10.8 95 +10 +10 1016.0 1010.2
05 20.08 ЮЗ 2-3
{4}
н/о н/о +13.6 +12.7 94 +13 +13 1016.5 1010.8
06 20.08 ЮЗ 4-6
{7}
н/о н/о +15.8 +13.6 87 +15 +15 1016.8 1011.1 +7.9 +17.3
07 20.08 ЮЗ 4 н/о н/о +18.1 +13.4 74 +18 +18 1017.1 1011.5
08 20.08 ЮЗ 5 н/о н/о +19.0 +13.0 68 +20 +20 1017.3 1011.7
09 20.08 ЮЗ 6-8
{8}
н/о н/о +20.0 +11.9 60 +21 +21 комфорт 1017.5 1011.9
10 20.08 Ю 5-11
{11}
н/о н/о +20.7 +11.9 57 +23 +23 комфорт 1017.4 1011.8
11 20.08 Ю 7 н/о н/о +21.2 +12.2 56 +23 +23 комфорт 1017.6 1012.0
12 20.08 ЮЗ 8-10
{11}
н/о н/о +21.2 +12.4 57 +23 +23 комфорт 1017.9 1012.3
13 20.08 Ю 8-11
{11}
н/о н/о +21.1 +12.4 58 +23 +23 комфорт 1017.9 1012.3
14 20.08 Ю 7-11
{12}
н/о н/о +20.7 +12.4 59 +23 +23 комфорт 1018.4 1012.8
15 20.08 Ю 5-8
{11}
н/о н/о +19.7 +12.3 62 +21 +21 комфорт 1018.8 1013.2
16 20.08 Ю 5 н/о н/о +19.3 +12.6 65 +20 +20 1019.1 1013.4
17 20.08 Ю 5 н/о н/о +18.5 +12.4 68 +19 +19 1018.9 1013.3
18 20.08 Ю 5-8
{9}
н/о н/о +16.5 +11.5 72 +16 +16 1019.3 1013.6 +15.8 +21.9
19 20.08 Ю 3 н/о н/о +14.9 +11.3 79 +14 +14 1019.8 1014.1
20 20.08 Ю 4 н/о н/о +14.1 +11.0 82 +13 +13 1020.0 1014.3
21 20.08 ЮЗ 2-3
{6}
н/о н/о +13.5 +10.7 83 +13 +13 1020.5 1014.8
22 20.08 Ю 1 н/о н/о +11.1 +9.6 90 +11 +11 1020.9 1015.1
23 20.08 Ю 3 н/о н/о +10.1 +8.8 92 +8 +8 1021.2 1015.4
00 21.08 В 1-1
{2}
н/о н/о +8.9 +8.1 95 +8 +8 1021.7 1015.9
01 21.08 В 1 н/о н/о +6.9 +6.1 95 +6 +6 1022.0 1016.1
02 21.08 штиль 0
{1}
н/о н/о +5.9 +5.0 94 +5 +5 1022.3 1016.4
03 21.08 штиль 0
{1}
н/о н/о +7.5 +6.7 95 +6 +6 1022.5 1016.6
04 21.08 СВ 1-1
{1}
н/о н/о +7.3 +6.5 95 +6 +6 1022.4 1016.5
05 21.08 С 1 н/о н/о +10.6 +9.8 95 +10 +10 1022.5 1016.7
06 21.08 ЮЗ 5-7
{7}
н/о н/о +15.4 +14.0 91 +14 +14 1022.7 1017.0 +5.3 +16.6
07 21.08 ЮЗ 6 н/о н/о +16.6 +13.2 80 +16 +16 1022.8 1017.1
08 21.08 ЮЗ 5-8
{8}
н/о н/о +18.5 +12.7 69 +19 +19 1022.8 1017.2
09 21.08 Ю 4-6
{7}
н/о н/о +19.2 +12.7 66 +20 +20 1022.5 1016.9
10 21.08 ЮЗ 4 н/о н/о +19.4 +12.9 66 +21 +21 комфорт 1022.6 1016.9
11 21.08 Ю 4 н/о н/о +19.6 +12.1 62 +21 +21 комфорт 1022.4 1016.7
12 21.08 ЮЗ 5-8
{8}
н/о н/о +19.6 +11.1 58 +21 +21 комфорт 1021.8 1016.2
13 21.08 Ю 5 н/о н/о +19.6 +12.0 61 +21 +21 комфорт 1021.5 1015.9
14 21.08 Ю 5-7
{8}
н/о н/о +19.3 +13.4 69 +20 +20 1021.1 1015.5
15 21.08 Ю 5-7
{8}
н/о н/о +18.2 +12.7 70 +18 +18 1020.8 1015.2
16 21.08 Ю 5 н/о н/о +17.6 +12.2 71 +17 +17 1020.7 1015.1
17 21.08 Ю 4 н/о н/о +16.8 +12.4 75 +16 +16 1020.7 1015.1
18 21.08 Ю 3-4
{5}
н/о н/о +15.6 +12.6 82 +15 +15 1020.5 1014.8 +15.4 +20.0
19 21.08 Ю 2 н/о н/о +15.1 +13.1 88 +15 +15 1020.4 1014.6
20 21.08 Ю 4 н/о н/о +15.5 +13.9 90 +14 +14 1019.7 1014.0
21 21.08 Ю 2-3
{4}
н/о н/о +15.0 +13.8 93 +15 +15 1019.5 1013.8
22 21.08 ЮЗ 2 н/о н/о +14.6 +13.4 93 +14 +14 1019.4 1013.7
23 21.08 Ю 2-3
{3}
н/о н/о +13.3 +12.3 94 +12 +12 1019.2 1013.5
00 22.08 ЮЗ 1-2
{4}
н/о н/о +13.3 +12.1 92 +13 +13 1019.0 1013.3
01 22.08 ЮЗ 1-2
{2}
н/о н/о +13.0 +12.1 94 +13 +13 1019.0 1013.3
02 22.08 ЮЗ 2 н/о н/о +13.5 +12.4 93 +13 +13 1019.1 1013.4
03 22.08 ЮЗ 3-3
{4}
н/о н/о +13.3 +12.5 95 +12 +12 1019.1 1013.4
04 22.08 З 3-4
{5}
н/о н/о +13.2 +12.2 94 +12 +12 1019.3 1013.6
05 22.08 З 2-3
{4}
н/о н/о +13.7 +12.4 92 +13 +13 1019.4 1013.7
06 22.08 З 3-5
{5}
н/о н/о +15.5 +13.2 86 +15 +15 1019.8 1014.1 +12.0 +15.9

 

Местоположение метеостанции Лаппеенранта Коннунсуо (Финляндия): широта 61.04 долгота 25.56 высота над уровнем моря 46 м.

В архиве по умолчанию представлена погода в Лаппеенранта Коннунсуо за последнюю неделю. Архивные данные за месяц целиком и за предыдущие месяцы, начиная с января 2011 года, Вы можете получить, выбрав интересующий диапазон дат из раскрывающегося списка и нажав кнопку "Ввод!".


*Определитесь, кто Вы:
робот инопланетянин человек

Внимание! Время в таблицах - всемирное. Для получения местного времени необходимо прибавить поправку, которая равна 1 ч.

Смотрите также архив погоды в соседних городах и на ближайших метеорологических станциях:

Погода в Лахти (Финляндия) (10 км)
Погода в Асиккала (Финляндия) (26 км)
Погода в Ламми Паппила (Финляндия) (27 км)
Погода в Ламми Эво (Финляндия) (31 км)
Погода в Хейноле (Финляндия) (32 км)
Погода на Острове Синго (Финляндия) (50 км)
Погода в Хямеэнлинна (Финляндия) (58 км)
Погода в Хювинкяа (Финляндия) (64 км)
Погода в Лепаа (Финляндия) (67 км)
Погода в Порвоо (Финляндия) (72 км)

Пояснения к столбцам:

Ветер - указаны скорость ветра в м/с - средняя за 10 мин, порывы в срок и между сроками (в фигурных скобках) и направление, откуда дует ветер: С - северный, СВ - северо-восточный, В - восточный, ЮВ - юго-восточный, Ю - южный, ЮЗ - юго-западный, З - западный, СЗ - северо-западный.
Видимость - горизонтальная дальность видимости в метрах или километрах. При видимости от 1 до 10 км при отсутствии осадков обычно наблюдается дымка, при ухудшении видимости до 1 км и менее - туман. В сухую погоду видимость может ухудшаться дымом, пылью или мглою.
Явления - указаны атмосферные явления, наблюдавшиеся в срок или в последний час перед сроком; фигурными скобками обозначены явления, наблюдавшиеся между сроками (за 1-3 часа до срока); квадратными скобками обозначены град или гололедные отложения с указанием их диаметра в мм.
Облачность - указаны через наклонную черту общая и нижняя облачность в баллах и высота нижней границы облаков в метрах; квадратными скобками обозначены формы облаков: Ci - перистые, Cs - перисто-слоистые, Cc - перисто-кучевые, Ac - высококучевые, As - высокослоистые, Sc - слоисто-кучевые, Ns - слоисто-дождевые, Cu - кучевые, Cb - кучево-дождевые. Подробнее классификацию облаков см. в Атласе облаков (PDF).
T - Температура воздуха - температура, измеренная на высоте 2 м над землей.
Td - Температура точки росы - температура, при понижении до которой содержащийся в воздухе водяной пар достигнет насыщения.
f - Относительная влажность воздуха - влажноcть воздуха, измеренная на высоте 2 м над землей.
Te - Эффективная температура - температура, которую ощущает одетый по сезону человек в тени. Характеристика душности погоды. При расчете учитывается влияние влажности воздуха и скорости ветра на теплоощущения человека.
Tes - Эффективная температура на солнце - температура, которую ощущает человек, с поправкой на солнечный нагрев. Характеристика знойности погоды. Зависит от высоты солнца над горизонтом, облачности и скорости ветра. Ночью, в пасмурную погоду, а также при ветре 12 м/с и более поправка равна нулю.
P - Атмосферное давление - приведенное к уровню моря атмосферное давление.
Po - Атмосферное давление - измеренное на уровне метеостанции атмосферное давление.
Tmin - Минимальная температура - минимум температуры воздуха на высоте 2 м над землей.
Tmax - Максимальная температура - максимум температуры воздуха на высоте 2 м над землей.
R - Количество осадков - Количество выпавших осадков за период времени, мм. При наведении курсора мыши на число - период времени, за который выпало указанное количество осадков.
R24 - Количество осадков - Количество выпавших осадков за 24 часа, мм.
S - Снежный покров - Высота снежного покрова, см. При наведении курсора мыши на число - состояние снежного покрова и степень покрытия местности в баллах.